sat.trackr.live / text

‹ back to catalog

YAOGAN-30 02C

NORAD 42947 · 2017-058C

PAYLOAD ACTIVE UNKNOWN

§ Identity

Operator
Country
PRC
Launch date
2017-09-29
Launch site
XICLF
Launch vehicle
Mass (kg)
RCS (m²)

External: N2YO · Heavens-Above · Gunter

§ Orbital elements

Epoch: 2026-09-13T04:19:01.776288Z

Period
95.68 min
Inclination
34.9967°
Eccentricity
0.0005815
Mean motion
15.04950252 rev/d
Perigee alt
547.6 km
Apogee alt
555.7 km
Semi-major
6,929.8 km
B*
1.6323e-4
RAAN
202.6737°
Arg perigee
262.9601°
Mean anomaly
97.0446°
Rev number
48,908

§ Raw data

YAOGAN-30 02C1 42947U 17058C   26256.17988167  .00002332  00000+0  16323-3 0  99922 42947  34.9967 202.6737 0005815 262.9601  97.0446 15.04950252489080

JSON: /api/v1/satellites/42947 · /tle

For live sub-satellite position, see the globe view (requires WebGL).

§ Visibility from observer

Set your observer location to see the next 7 days of passes ≥ 10°. The values pass through the URL so the page stays shareable.

No JS? Fill the form by hand. The geolocation button needs JavaScript.